Wainwright, AK

9:08 AM AKST on December 02, 2016 (GMT -0900)
Wiley Post-Will Rogers Memorial

Weather History for PABR - August, 2012

Change the Weather History Date:

Tuesday, August 28, 2012

  Actual Average Record
Temperature  
Mean Temperature 36 °F 37 °F  
Max Temperature 39 °F 42 °F 58 °F (1959)
Min Temperature 32 °F 33 °F 21 °F (1922)
Degree Days  
Heating Degree Days 29 28  
Month to date heating degree days 524 723  
Since 1 June heating degree days 1998 2350  
Since 1 July heating degree days 1155 1470  
Cooling Degree Days 0    
Month to date cooling degree days 0  
Year to date cooling degree days 0  
Since 1 June cooling degree days 0  
Moisture  
Dew Point 31 °F    
Average Humidity 0    
Maximum Humidity 0    
Minimum Humidity 0    
Precipitation  
Precipitation 0.01 in 0.04 in 0.18 in (2011)
Month to date precipitation 1.01 0.96  
Year to date precipitation 2.73 2.96  
Snow  
Snow T in 0.00 in 0.40 in (1967)
Month to date snowfall T 0.7  
Since 1 June snowfall 0.0 1.6  
Since 1 July snowfall 0.2 0.9  
Snow Depth 0.00 in    
Sea Level Pressure  
Sea Level Pressure 29.86 in    
Wind  
Wind Speed 11 mph (WNW)    
Max Wind Speed 21 mph    
Max Gust Speed 25 mph    
Visibility 9 miles    
Events      
T = Trace of Precipitation, MM = Missing Value Source: NWS Daily Summary

Daily Weather History Graph

Daily Weather History Graph

Search for Another Location

Airport or City:

Trip Planner

Search our weather history database for the weather conditions in past years. The results will help you decide how hot, cold, wet, or windy it might be!

Date:

Astronomy

Aug. 28, 2012 Rise Set
Actual Time 6:18 AM AKDT 10:34 PM AKDT
Civil Twilight 4:47 AM AKDT 12:02 AM AKDT
Nautical Twilight Sun does not rise Sun does not rise
Astronomical Twilight Sun does not rise Sun does not rise
Moon 9:42 PM AKDT (8/28) 1:20 AM AKDT (8/28)
Length of Visible Light 19h 15m
Length of Day
16h 15m
Waxing Gibbous, 91% of the Moon is Illuminated
Aug 28
Waxing Gibbous
Aug 31
Full
Sep 8
Last Quarter
Sep 15
New
Sep 22
First Quarter

Hourly Weather History & Observations

Time (AKDT) Temp. Windchill Dew Point Humidity Pressure Visibility Wind Dir Wind Speed Gust Speed Precip Events Conditions
12:40 AM 37.4 °F 28.9 °F 33.8 °F 87% 29.77 in 10.0 mi WNW 13.8 mph - 0.00 in   Overcast
12:48 AM 37.4 °F 28.5 °F 33.8 °F 87% 29.77 in 10.0 mi WNW 15.0 mph - 0.00 in   Overcast
12:53 AM 37.0 °F 28.5 °F 34.0 °F 89% 29.78 in 10.0 mi WNW 13.8 mph - 0.00 in   Overcast
1:53 AM 37.0 °F 29.8 °F 34.0 °F 89% 29.80 in 10.0 mi WNW 10.4 mph - N/A   Overcast
2:51 AM 37.4 °F 30.3 °F 35.6 °F 93% 29.81 in 2.5 mi WNW 10.4 mph - 0.00 in   Light Drizzle
2:53 AM 37.0 °F 29.8 °F 36.0 °F 96% 29.81 in 2.0 mi WNW 10.4 mph - 0.00 in   Light Drizzle
3:12 AM 37.4 °F 30.8 °F 35.6 °F 93% 29.81 in 4.0 mi North 9.2 mph - 0.00 in   Light Drizzle
3:53 AM 37.0 °F 29.8 °F 35.1 °F 93% 29.82 in 6.0 mi North 10.4 mph - 0.01 in   Light Drizzle
4:31 AM 37.4 °F 30.8 °F 33.8 °F 87% 29.83 in 10.0 mi NNW 9.2 mph - 0.00 in   Light Drizzle
4:53 AM 37.0 °F 29.8 °F 34.0 °F 89% 29.84 in 10.0 mi North 10.4 mph - 0.00 in   Overcast
5:53 AM 37.0 °F 30.4 °F 33.1 °F 86% 29.85 in 10.0 mi NNW 9.2 mph - N/A   Overcast
6:53 AM 37.0 °F 29.3 °F 30.9 °F 79% 29.86 in 10.0 mi WNW 11.5 mph - N/A   Overcast
7:23 AM 35.6 °F 28.0 °F 30.2 °F 81% 29.86 in 10.0 mi NW 10.4 mph - N/A   Overcast
7:53 AM 36.0 °F 28.5 °F 30.0 °F 79% 29.87 in 10.0 mi NW 10.4 mph - N/A   Overcast
8:53 AM 36.0 °F 28.0 °F 28.9 °F 76% 29.88 in 10.0 mi WNW 11.5 mph - N/A   Overcast
9:26 AM 35.6 °F 26.6 °F 28.4 °F 75% 29.89 in 10.0 mi WNW 13.8 mph - N/A   Overcast
9:41 AM 35.6 °F 26.2 °F 28.4 °F 75% 29.88 in 10.0 mi WNW 15.0 mph - N/A   Overcast
9:53 AM 35.1 °F 25.9 °F 28.0 °F 76% 29.89 in 10.0 mi WNW 13.8 mph - N/A   Overcast
10:53 AM 35.1 °F 26.4 °F 28.0 °F 76% 29.90 in 10.0 mi West 12.7 mph - N/A   Overcast
11:53 AM 36.0 °F 26.3 °F 28.0 °F 73% 29.90 in 10.0 mi WNW 16.1 mph - N/A   Overcast
12:53 PM 37.0 °F 26.7 °F 28.0 °F 70% 29.90 in 10.0 mi West 19.6 mph - 0.00 in   Overcast
1:53 PM 37.0 °F 27.0 °F 28.9 °F 73% 29.90 in 9.0 mi West 18.4 mph 23.0 mph 0.00 in   Mostly Cloudy
2:53 PM 37.9 °F 28.9 °F 30.0 °F 73% 29.90 in 10.0 mi West 16.1 mph 23.0 mph N/A   Overcast
3:53 PM 37.9 °F 29.2 °F 30.0 °F 73% 29.90 in 10.0 mi West 15.0 mph - N/A   Overcast
4:53 PM 37.0 °F 28.1 °F 30.0 °F 76% 29.90 in 10.0 mi West 15.0 mph - N/A   Overcast
5:53 PM 37.0 °F 29.8 °F 30.9 °F 79% 29.90 in 10.0 mi West 10.4 mph - N/A   Overcast
6:16 PM 37.4 °F 29.3 °F 30.2 °F 75% 29.89 in 10.0 mi West 12.7 mph - N/A   Overcast
6:53 PM 37.0 °F 30.4 °F 30.0 °F 76% 29.89 in 10.0 mi West 9.2 mph 17.3 mph N/A   Overcast
7:34 PM 37.4 °F 31.4 °F 30.2 °F 75% 29.88 in 10.0 mi West 8.1 mph - N/A   Mostly Cloudy
7:53 PM 37.0 °F 29.8 °F 30.9 °F 79% 29.88 in 10.0 mi West 10.4 mph - N/A   Mostly Cloudy
8:53 PM 36.0 °F 29.6 °F 30.0 °F 79% 29.88 in 10.0 mi West 8.1 mph - N/A   Mostly Cloudy
9:53 PM 36.0 °F 32.1 °F 30.0 °F 79% 29.88 in 10.0 mi WNW 4.6 mph - N/A   Mostly Cloudy
10:53 PM 36.0 °F - 30.9 °F 82% 29.87 in 10.0 mi Calm Calm - N/A   Mostly Cloudy
11:53 PM 33.1 °F - 30.0 °F 89% 29.86 in 10.0 mi Calm Calm - N/A   Mostly Cloudy